This is the latest recevied weather packets stored in our database for station/object W4BOD. If no packets are shown the sender has not sent any weather packets the latest 10 day(s).
| Time | Temp. | Humidity | Pressure | Rain* | Wind** | Luminosity | Snow |
|---|---|---|---|---|---|---|---|
| 1777324159 | 28.89° C | 59% | 1011.6 hPa | 0 mm | - | 421 W/m² | - |
| 1777323857 | 28.89° C | 58% | 1011.8 hPa | 0 mm | - | 449 W/m² | - |
| 1777323553 | 28.89° C | 59% | 1011.8 hPa | 0 mm | - | 262 W/m² | - |
| 1777323251 | 28.89° C | 59% | 1011.9 hPa | 0 mm | - | 420 W/m² | - |
| 1777322948 | 28.89° C | 59% | 1011.6 hPa | 0 mm | - | 502 W/m² | - |
| 1777322647 | 28.89° C | 59% | 1011.8 hPa | 0 mm | - | 606 W/m² | - |
| 1777322344 | 28.89° C | 59% | 1012.1 hPa | 0 mm | - | 454 W/m² | - |
| 1777322041 | 28.89° C | 59% | 1011.8 hPa | 0 mm | - | 470 W/m² | - |
| 1777321737 | 28.89° C | 59% | 1012 hPa | 0 mm | - | 605 W/m² | - |
| 1777321434 | 28.89° C | 59% | 1011.9 hPa | 0 mm | - | 611 W/m² | - |
| 1777321131 | 28.89° C | 60% | 1012.2 hPa | 0 mm | - | 505 W/m² | - |
| 1777320829 | 28.33° C | 60% | 1012.2 hPa | 0 mm | - | 608 W/m² | - |
| 1777320525 | 28.33° C | 60% | 1012.5 hPa | 0 mm | - | 691 W/m² | - |
| 1777320223 | 28.89° C | 61% | 1012.5 hPa | 0 mm | - | 698 W/m² | - |
| 1777319919 | 28.33° C | 61% | 1012.5 hPa | 0 mm | - | 326 W/m² | - |
| 1777319617 | 28.89° C | 59% | 1012.7 hPa | 0 mm | - | 495 W/m² | - |
| 1777319313 | 28.33° C | 60% | 1012.8 hPa | 0 mm | - | 665 W/m² | - |
| 1777319011 | 28.33° C | 62% | 1012.9 hPa | 0 mm | - | 403 W/m² | - |
| 1777318707 | 28.89° C | 59% | 1013.1 hPa | 0 mm | - | 414 W/m² | - |
| 1777318403 | 28.33° C | 60% | 1013.1 hPa | 0 mm | - | 461 W/m² | - |
| 1777318100 | 28.89° C | 59% | 1013.2 hPa | 0 mm | - | 417 W/m² | - |
| 1777317797 | 28.89° C | 59% | 1013.1 hPa | 0 mm | - | 781 W/m² | - |
| 1777317494 | 28.89° C | 59% | 1013.4 hPa | 0 mm | - | 805 W/m² | - |
| 1777317191 | 28.89° C | 59% | 1013.5 hPa | 0 mm | - | 795 W/m² | - |
| 1777316887 | 28.89° C | 59% | 1013.7 hPa | 0 mm | - | 771 W/m² | - |
* Rain latest hour (hover to see other rain measurements)
** Current wind speed in m/s (hover to see current wind gust speed)